Weather in Wroclaw

Poland     51°06′40″N   17°02′18″E
temp.,
°C
wind,
m/s
gust,
m/s
humid.,
%
clouds,
%
prec.,
mm/h
press.,
hPa
HPBL,
m
14 june, mon
mon1423:00+9wnw34912 0.1 102551
02:00+8wnw33922 0.1 102544
05:00+8wnw33945 0.0 102439
08:00+13nw34785 0.0 1024381
11:00+17nnw22610 0.0 10241142
14:00+20nw11520 0.0 10221338
17:00+20ese01500 0.0 10211334
20:00+17se22670 0.0 102012
15 june, tue
tue1523:00+13s33740 0.0 102041
02:00+12s33785 0.0 101930
05:00+11s2279100 0.0 101916
08:00+16ssw0171100 0.0 1019149
11:00+22nw1260100 0.0 1019678
14:00+24nw2254100 0.0 10181389
17:00+23nw2357100 0.0 10171276
20:00+21ssw1170100 0.0 101711
16 june, wed
wed1623:00+17n358681 0.1 101892
02:00+15nnw22976 1.6 101942
05:00+13n229723 0.1 101921
08:00+17nne228953 0.1 1020366
11:00+21ne2273100 0.1 1020901
14:00+23ene3266100 0.3 10191179
17:00+22e2370100 0.1 1018944
20:00+21ene33765 0.1 101865
17 june, thu
thu1723:00+17ese34881 0.0 101951
02:00+15ese36940 0.0 101988
05:00+15se36960 0.0 1019112
08:00+19se46810 0.0 1019371
11:00+24ese45640 0.0 1019870
14:00+27se45530 0.0 10181237
17:00+27se45551 0.0 10171317
20:00+24ese22721 0.0 101617
18 june, fri
fri1823:00+20ese512794 0.0 1018257
02:00+17ese389261 0.0 1017148
05:00+16ese349441 0.0 101774
08:00+21se35795 0.0 1017267
11:00+27se56592 0.0 1016881
14:00+29se56511 0.0 10161542
17:00+29se34490 0.0 10151382
20:00+26sse22705 0.0 101514